DW5242 Weather Reports


time (UTC)temp
C
wind
direction
speed
KPH
gust
KPH
rain 1hr
cm
rain 24hr
cm
rain mn
cm
humidity
%
barometer
mb
20190619195041 36 231 0.0 0.0 0.00 0.00 0.00 10 1014.0
20190619194525 36 196 0.0 0.0 0.00 0.00 0.00 11 1014.1
20190619193539 35 70 0.0 0.0 0.00 0.00 0.00 12 1014.3
20190619193023 35 252 0.0 0.0 0.00 0.00 0.00 12 1014.4
20190619192530 35 172 0.0 0.0 0.00 0.00 0.00 12 1014.5
20190619192034 35 204 0.0 0.0 0.00 0.00 0.00 11 1014.5
20190619191524 36 240 0.0 0.0 0.00 0.00 0.00 12 1014.6
20190619191028 35 187 0.0 0.0 0.00 0.00 0.00 12 1014.7
20190619190546 35 194 0.0 0.0 0.00 0.00 0.00 12 1014.7
20190619190039 35 307 0.0 0.0 0.00 0.00 0.00 12 1014.8
20190619185523 35 197 0.0 0.0 0.00 0.00 0.00 12 1014.8
20190619185027 35 271 0.0 0.0 0.00 0.00 0.00 12 1014.9
20190619184531 35 105 0.0 0.0 0.00 0.00 0.00 12 1014.9
20190619184035 35 165 0.0 0.0 0.00 0.00 0.00 12 1014.9
20190619183539 35 209 0.0 0.0 0.00 0.00 0.00 12 1015.0
20190619183023 35 186 0.0 0.0 0.00 0.00 0.00 12 1015.0
20190619182527 34 265 0.0 0.0 0.00 0.00 0.00 12 1015.1
20190619182034 34 210 0.0 0.0 0.00 0.00 0.00 12 1015.0
20190619181538 34 263 0.0 0.0 0.00 0.00 0.00 12 1015.2
20190619181026 33 203 0.0 0.0 0.00 0.00 0.00 11 1015.2
20190619180540 33 250 0.0 0.0 0.00 0.00 0.00 11 1015.3
20190619180036 33 187 0.0 0.0 0.00 0.00 0.00 11 1015.3
20190619175523 33 185 0.0 0.0 0.00 0.00 0.00 11 1015.3
20190619175027 33 171 0.0 0.0 0.00 0.00 0.00 11 1015.3
20190619174534 33 180 0.0 0.0 0.00 0.00 0.00 12 1015.4
20190619174038 33 254 0.0 0.0 0.00 0.00 0.00 12 1015.5
20190619173541 33 212 0.0 0.0 0.00 0.00 0.00 12 1015.5
20190619173025 33 191 0.0 0.0 0.00 0.00 0.00 13 1015.5
20190619172529 32 219 0.0 0.0 0.00 0.00 0.00 13 1015.5
20190619172033 32 167 0.0 0.0 0.00 0.00 0.00 12 1015.5
20190619171541 32 238 0.0 0.0 0.00 0.00 0.00 13 1015.5
20190619171025 32 167 0.0 0.0 0.00 0.00 0.00 13 1015.6
20190619170539 32 182 0.0 0.0 0.00 0.00 0.00 12 1015.6
20190619170034 32 237 0.0 0.0 0.00 0.00 0.00 12 1015.6
20190619165538 32 191 0.0 0.0 0.00 0.00 0.00 12 1015.6
20190619165042 32 207 0.0 0.0 0.00 0.00 0.00 12 1015.6
20190619164526 31 257 0.0 0.0 0.00 0.00 0.00 12 1015.6
20190619164039 31 219 0.0 0.0 0.00 0.00 0.00 13 1015.6
20190619163529 31 159 0.0 0.0 0.00 0.00 0.00 13 1015.6
20190619163033 31 190 0.0 0.0 0.00 0.00 0.00 13 1015.6
20190619162524 30 250 0.0 0.0 0.00 0.00 0.00 13 1015.6
20190619162034 30 250 0.0 0.0 0.00 0.00 0.00 13 1015.6
20190619161538 30 213 0.0 0.0 0.00 0.00 0.00 13 1015.7
20190619161042 30 259 0.0 0.0 0.00 0.00 0.00 14 1015.7
20190619160536 29 223 0.0 0.0 0.00 0.00 0.00 14 1015.7
20190619160029 29 223 0.0 0.0 0.00 0.00 0.00 14 1015.8
20190619155533 29 194 0.0 0.0 0.00 0.00 0.00 14 1015.7
20190619155040 29 245 0.0 0.0 0.00 0.00 0.00 15 1015.8
20190619154524 28 116 0.0 0.0 0.00 0.00 0.00 14 1015.7
20190619154028 28 128 0.0 0.0 0.00 0.00 0.00 14 1015.8
20190619153536 28 157 0.0 0.0 0.00 0.00 0.00 14 1015.8
20190619153040 28 168 0.0 0.0 0.00 0.00 0.00 15 1015.8
20190619152524 27 169 0.0 0.0 0.00 0.00 0.00 16 1015.8
20190619152028 27 130 0.0 0.0 0.00 0.00 0.00 16 1015.9
20190619151532 27 139 0.0 0.0 0.00 0.00 0.00 16 1015.9
20190619151036 27 140 0.0 0.0 0.00 0.00 0.00 16 1015.9
20190619150550 26 169 0.0 0.0 0.00 0.00 0.00 17 1015.9
20190619150040 26 169 0.0 0.0 0.00 0.00 0.00 17 1015.8
20190619145524 26 167 0.0 0.0 0.00 0.00 0.00 17 1015.8
20190619145028 25 169 0.0 0.0 0.00 0.00 0.00 18 1015.8
20190619144535 25 173 0.0 0.0 0.00 0.00 0.00 18 1015.8
20190619144023 25 154 0.0 0.0 0.00 0.00 0.00 19 1015.9
20190619143533 24 155 0.0 0.0 0.00 0.00 0.00 20 1015.8
20190619143037 23 155 0.0 0.0 0.00 0.00 0.00 20 1015.8
20190619142521 23 174 0.0 0.0 0.00 0.00 0.00 20 1015.8
20190619142031 23 174 0.0 0.0 0.00 0.00 0.00 20 1015.7
20190619141535 22 174 0.0 0.0 0.00 0.00 0.00 21 1015.7
20190619141042 22 174 0.0 0.0 0.00 0.00 0.00 21 1015.6
20190619140556 22 174 0.0 0.0 0.00 0.00 0.00 21 1015.6
20190619140026 22 164 0.0 0.0 0.00 0.00 0.00 22 1015.6
20190619135530 22 144 0.0 0.0 0.00 0.00 0.00 22 1015.5
20190619135038 21 143 0.0 0.0 0.00 0.00 0.00 22 1015.5
20190619134525 21 147 0.0 0.0 0.00 0.00 0.00 22 1015.4
20190619134029 21 140 0.0 0.0 0.00 0.00 0.00 22 1015.5
20190619133533 21 123 0.0 0.0 0.00 0.00 0.00 23 1015.4
20190619133037 20 112 0.0 0.0 0.00 0.00 0.00 23 1015.5
20190619132521 20 112 0.0 0.0 0.00 0.00 0.00 23 1015.4
20190619132033 20 114 0.0 0.0 0.00 0.00 0.00 24 1015.4
20190619131541 20 115 0.0 0.0 0.00 0.00 0.00 24 1015.4
20190619131024 20 115 0.0 0.0 0.00 0.00 0.00 25 1015.3
20190619130542 19 115 0.0 0.0 0.00 0.00 0.00 25 1015.3
20190619130039 19 117 0.0 0.0 0.00 0.00 0.00 25 1015.2
20190619125523 19 117 0.0 0.0 0.00 0.00 0.00 25 1015.2
20190619125026 19 86 0.0 0.0 0.00 0.00 0.00 25 1015.2
20190619124531 19 82 0.0 0.0 0.00 0.00 0.00 25 1015.1
20190619124035 19 82 0.0 0.0 0.00 0.00 0.00 25 1015.1
20190619123539 19 82 0.0 0.0 0.00 0.00 0.00 25 1015.1
20190619123022 19 82 0.0 0.0 0.00 0.00 0.00 25 1015.1
20190619122529 19 82 0.0 0.0 0.00 0.00 0.00 25 1015.1
20190619122037 20 82 0.0 0.0 0.00 0.00 0.00 24 1015.1
20190619121540 20 82 0.0 0.0 0.00 0.00 0.00 24 1015.1
20190619121028 20 81 0.0 0.0 0.00 0.00 0.00 23 1015.1
20190619120543 20 81 0.0 0.0 0.00 0.00 0.00 23 1015.1
20190619120036 20 81 0.0 0.0 0.00 0.00 0.00 22 1015.0
20190619115539 20 81 0.0 0.0 0.00 0.00 0.00 23 1015.0
20190619115023 20 81 0.0 0.0 0.00 0.00 0.00 23 1015.0
20190619114529 21 81 0.0 0.0 0.00 0.00 0.00 22 1014.9
20190619114037 21 81 0.0 0.0 0.00 0.00 0.00 22 1014.9
20190619113523 21 81 0.0 0.0 0.00 0.00 0.00 22 1014.8
20190619113027 21 81 0.0 0.0 0.00 0.00 0.00 21 1014.8
20190619112535 21 81 0.0 0.0 0.00 0.00 0.00 21 1014.8
20190619112022 21 82 0.0 0.0 0.00 0.00 0.00 21 1014.8
20190619111526 22 90 0.0 0.0 0.00 0.00 0.00 20 1014.8
20190619111033 22 66 0.0 0.0 0.00 0.00 0.00 20 1014.8
20190619110551 22 49 0.0 0.0 0.00 0.00 0.00 19 1014.8
20190619110041 23 42 0.0 0.0 0.00 0.00 0.00 19 1014.8
20190619105525 23 42 0.0 0.0 0.00 0.00 0.00 18 1014.8
20190619105032 22 55 0.0 0.0 0.00 0.00 0.00 18 1014.8
20190619104538 22 46 0.0 0.0 0.00 0.00 0.00 19 1014.7
20190619104026 22 49 0.0 0.0 0.00 0.00 0.00 18 1014.7
20190619103530 23 47 0.0 0.0 0.00 0.00 0.00 18 1014.7
20190619103037 23 46 0.0 0.0 0.00 0.00 0.00 18 1014.7
20190619102524 23 41 0.0 0.0 0.00 0.00 0.00 18 1014.7
20190619102028 23 51 0.0 0.0 0.00 0.00 0.00 18 1014.8
20190619101533 23 52 0.0 0.0 0.00 0.00 0.00 18 1014.8
20190619101035 23 68 0.0 0.0 0.00 0.00 0.00 18 1014.7
20190619100554 23 69 0.0 0.0 0.00 0.00 0.00 18 1014.8
20190619100023 23 71 0.0 0.0 0.00 0.00 0.00 18 1014.8
20190619095527 22 68 0.0 0.0 0.00 0.00 0.00 18 1014.7
20190619095031 22 64 0.0 0.0 0.00 0.00 0.00 18 1014.6
20190619094542 22 65 0.0 0.0 0.00 0.00 0.00 18 1014.7
20190619094025 22 62 0.0 0.0 0.00 0.00 0.00 18 1014.7
20190619093536 22 63 0.0 0.0 0.00 0.00 0.00 18 1014.7
20190619093040 22 62 0.0 0.0 0.00 0.00 0.00 19 1014.8
20190619092524 22 76 0.0 0.0 0.00 0.00 0.00 19 1014.7
20190619092028 22 53 0.0 0.0 0.00 0.00 0.00 19 1014.7
20190619091532 22 67 0.0 0.0 0.00 0.00 0.00 19 1014.8
20190619091040 22 74 0.0 0.0 0.00 0.00 0.00 19 1014.7
20190619090534 23 81 0.0 0.0 0.00 0.00 0.00 19 1014.8
20190619090026 23 80 0.0 0.0 0.00 0.00 0.00 18 1014.8
20190619085533 23 72 0.0 0.0 0.00 0.00 0.00 19 1014.9
20190619085040 23 49 0.0 0.0 0.00 0.00 0.00 18 1014.9
20190619084528 23 49 0.0 0.0 0.00 0.00 0.00 18 1015.0
20190619084032 23 44 0.0 0.0 0.00 0.00 0.00 18 1015.0
20190619083536 23 44 0.0 0.0 0.00 0.00 0.00 18 1015.0
20190619083040 23 44 0.0 0.0 0.00 0.00 0.00 18 1015.0
20190619082524 23 49 0.0 0.0 0.00 0.00 0.00 18 1015.1
20190619082029 23 45 0.0 0.0 0.00 0.00 0.00 18 1015.2
20190619081532 23 67 0.0 0.0 0.00 0.00 0.00 18 1015.1
20190619081022 23 42 0.0 0.0 0.00 0.00 0.00 18 1015.2
20190619080545 23 78 0.0 0.0 0.00 0.00 0.00 18 1015.1
20190619080038 23 49 0.0 0.0 0.00 0.00 0.00 18 1015.3
20190619075526 24 40 0.0 0.0 0.00 0.00 0.00 18 1015.2
20190619075033 24 167 0.0 0.0 0.00 0.00 0.00 17 1015.3
20190619074540 24 167 0.0 0.0 0.00 0.00 0.00 17 1015.2
20190619074024 25 169 0.0 0.0 0.00 0.00 0.00 17 1015.2
20190619073531 25 169 0.0 0.0 0.00 0.00 0.00 17 1015.1
20190619073021 25 170 0.0 0.0 0.00 0.00 0.00 17 1015.0
20190619072528 25 167 0.0 0.0 0.00 0.00 0.00 17 1015.1
20190619072035 25 167 0.0 0.0 0.00 0.00 0.00 16 1015.1
20190619071519 26 167 0.0 0.0 0.00 0.00 0.00 16 1015.0
20190619071026 26 199 0.0 0.0 0.00 0.00 0.00 16 1014.9
20190619070544 26 215 0.0 0.0 0.00 0.00 0.00 15 1014.8
20190619070037 26 215 0.0 0.0 0.00 0.00 0.00 15 1014.8
20190619065541 26 311 0.0 0.0 0.00 0.00 0.00 15 1014.7
20190619065025 26 311 0.0 0.0 0.00 0.00 0.00 15 1014.7
20190619064529 27 295 0.0 0.0 0.00 0.00 0.00 15 1014.6
20190619064033 27 295 0.0 0.0 0.00 0.00 0.00 15 1014.6
20190619063540 27 292 0.0 0.0 0.00 0.00 0.00 14 1014.6
20190619063027 27 302 0.0 0.0 0.00 0.00 0.00 14 1014.6
20190619062531 27 302 0.0 0.0 0.00 0.00 0.00 14 1014.6
20190619062038 27 300 0.0 0.0 0.00 0.00 0.00 14 1014.5
20190619061529 27 300 0.0 0.0 0.00 0.00 0.00 14 1014.6
20190619061019 27 315 0.0 0.0 0.00 0.00 0.00 14 1014.6
20190619060536 27 355 0.0 0.0 0.00 0.00 0.00 14 1014.6
20190619060029 27 12 0.0 0.0 0.00 0.00 0.00 14 1014.5
20190619055533 27 14 0.0 0.0 0.00 0.00 0.00 13 1014.6
20190619055040 27 350 0.0 0.0 0.00 0.00 0.00 13 1014.5
20190619054524 27 344 0.0 0.0 0.00 0.00 0.00 13 1014.5
20190619054034 28 342 0.0 0.0 0.00 0.00 0.00 13 1014.5
20190619053538 28 324 0.0 0.0 0.00 0.00 0.00 13 1014.5
20190619053025 28 304 0.0 0.0 0.00 0.00 0.00 12 1014.4
20190619052536 28 315 0.0 0.0 0.00 0.00 0.00 12 1014.4
20190619052023 28 299 0.0 0.0 0.00 0.00 0.00 12 1014.4
20190619051527 28 309 0.0 0.0 0.00 0.00 0.00 12 1014.3
20190619051034 28 341 0.0 0.0 0.00 0.00 0.00 12 1014.3
20190619050555 28 306 0.0 0.0 0.00 0.00 0.00 13 1014.2
20190619050028 28 305 0.0 0.0 0.00 0.00 0.00 13 1014.2
20190619045531 28 5 0.0 0.0 0.00 0.00 0.00 13 1014.2
20190619045035 28 22 0.0 0.0 0.00 0.00 0.00 13 1014.1
20190619044522 28 284 0.0 0.0 0.00 0.00 0.00 12 1014.0
20190619044029 28 274 0.0 0.0 0.00 0.00 0.00 12 1013.9
20190619043537 29 281 0.0 0.0 0.00 0.00 0.00 12 1013.8
20190619043041 29 302 0.0 0.0 0.00 0.00 0.00 12 1013.7
20190619042525 30 305 0.0 0.0 0.00 0.00 0.00 11 1013.5
20190619042029 30 306 0.0 0.0 0.00 0.00 0.00 11 1013.4
20190619041532 30 315 0.0 0.0 0.00 0.00 0.00 11 1013.3
20190619041036 30 309 0.0 0.0 0.00 0.00 0.00 10 1013.2
20190619040550 30 309 0.0 0.0 0.00 0.00 0.00 10 1013.1
20190619040040 30 319 0.0 0.0 0.00 0.00 0.00 10 1012.9
20190619035524 30 292 0.0 0.0 0.00 0.00 0.00 10 1012.8
20190619035031 30 264 0.0 0.0 0.00 0.00 0.00 10 1012.7
20190619034535 31 275 0.0 0.0 0.00 0.00 0.00 10 1012.6
20190619034023 31 285 0.0 0.0 0.00 0.00 0.00 9 1012.6
20190619033527 31 285 0.0 0.0 0.00 0.00 0.00 9 1012.5
20190619033031 31 285 0.0 0.0 0.00 0.00 0.00 9 1012.5
20190619032535 31 285 0.0 0.0 0.00 0.00 0.00 9 1012.4
20190619032039 31 283 0.0 0.0 0.00 0.00 0.00 9 1012.3
20190619031523 32 299 0.0 0.0 0.00 0.00 0.00 9 1012.2
20190619031030 32 296 0.0 0.0 0.00 0.00 0.00 9 1012.2
20190619030547 32 327 0.0 0.0 0.00 0.00 0.00 9 1012.1
20190619030040 32 300 0.0 0.0 0.00 0.00 0.00 8 1012.0
20190619025524 32 302 0.0 0.0 0.00 0.00 0.00 8 1012.0
20190619025035 33 302 0.0 0.0 0.00 0.00 0.00 8 1011.9
20190619024538 33 283 0.0 0.0 0.00 0.00 0.00 7 1011.8
20190619024022 33 271 0.0 0.0 0.00 0.00 0.00 7 1011.8
20190619023526 33 265 0.0 0.0 0.00 0.00 0.00 7 1011.7
20190619023030 33 268 0.0 0.0 0.00 0.00 0.00 7 1011.7
20190619022537 33 261 0.0 0.0 0.00 0.00 0.00 7 1011.6
20190619022041 34 240 0.0 0.0 0.00 0.00 0.00 7 1011.5
20190619021525 34 242 0.0 0.0 0.00 0.00 0.00 7 1011.4
20190619021029 35 249 0.0 0.0 0.00 0.00 0.00 7 1011.3
20190619020547 35 266 0.0 0.0 0.00 0.00 0.00 7 1011.3
20190619020023 35 254 0.0 0.0 0.00 0.00 0.00 7 1011.3
20190619015527 35 248 0.0 0.0 0.00 0.00 0.00 7 1011.2
20190619015034 35 213 0.0 0.0 0.00 0.00 0.00 7 1011.1
20190619014541 35 211 0.0 0.0 0.00 0.00 0.00 7 1011.1
20190619014025 36 228 0.0 0.0 0.00 0.00 0.00 6 1011.0
20190619013532 36 269 0.0 0.0 0.00 0.00 0.00 6 1011.0
20190619013039 36 248 0.0 0.0 0.00 0.00 0.00 6 1011.0
20190619012526 36 225 0.0 0.0 0.00 0.00 0.00 6 1011.0
20190619012036 36 248 0.0 0.0 0.00 0.00 0.00 6 1010.9
20190619011540 36 271 0.0 0.0 0.00 0.00 0.00 6 1011.0
20190619011028 36 257 0.0 0.0 0.00 0.00 0.00 6 1011.0
20190619010542 36 200 0.0 0.0 0.00 0.00 0.00 6 1011.0
20190619010035 36 210 0.0 0.0 0.00 0.00 0.00 6 1011.0
20190619005539 37 214 0.0 0.0 0.00 0.00 0.00 6 1011.0
20190619005022 37 248 0.0 0.0 0.00 0.00 0.00 5 1011.0
20190619004529 37 232 0.0 0.0 0.00 0.00 0.00 5 1011.0
20190619004036 37 194 0.0 0.0 0.00 0.00 0.00 5 1010.9
20190619003523 37 209 0.0 0.0 0.00 0.00 0.00 5 1010.9
20190619003027 37 265 0.0 0.0 0.00 0.00 0.00 5 1011.0
20190619002534 37 273 0.0 0.0 0.00 0.00 0.00 5 1011.0
20190619002022 37 299 0.0 0.0 0.00 0.00 0.00 5 1011.0
20190619001526 37 213 0.0 0.0 0.00 0.00 0.00 5 1011.0
20190619001033 37 213 0.0 0.0 0.00 0.00 0.00 5 1011.0
20190619000550 37 213 0.0 0.0 0.00 0.00 0.00 5 1011.1
20190619000023 37 182 0.0 0.0 0.00 0.00 0.00 5 1011.1
20190618235526 38 240 0.0 0.0 0.00 0.00 0.00 5 1011.1
20190618235031 38 219 0.0 0.0 0.00 0.00 0.00 5 1011.1
20190618234538 38 272 0.0 0.0 0.00 0.00 0.00 5 1011.1
20190618234025 38 184 0.0 0.0 0.00 0.00 0.00 5 1011.2
20190618233529 38 285 0.0 0.0 0.00 0.00 0.00 5 1011.1
20190618233036 37 232 0.0 0.0 0.00 0.00 0.00 5 1011.3
20190618232524 37 186 0.0 0.0 0.00 0.00 0.00 5 1011.4
20190618232028 37 206 1.6 0.0 0.00 0.00 0.00 5 1011.4
20190618231534 37 226 3.2 0.0 0.00 0.00 0.00 6 1011.4
20190618231024 38 254 1.6 0.0 0.00 0.00 0.00 5 1011.4
20190618230539 38 244 0.0 0.0 0.00 0.00 0.00 5 1011.4
20190618230032 38 285 0.0 0.0 0.00 0.00 0.00 5 1011.4
20190618225536 38 299 0.0 0.0 0.00 0.00 0.00 5 1011.5
20190618225039 38 267 0.0 0.0 0.00 0.00 0.00 5 1011.5
20190618224523 38 242 0.0 0.0 0.00 0.00 0.00 5 1011.4
20190618224028 38 246 1.6 0.0 0.00 0.00 0.00 5 1011.5
20190618223535 38 203 1.6 0.0 0.00 0.00 0.00 5 1011.5
20190618223040 38 234 0.0 0.0 0.00 0.00 0.00 5 1011.5
20190618222523 38 183 0.0 0.0 0.00 0.00 0.00 5 1011.6
20190618222027 38 287 0.0 0.0 0.00 0.00 0.00 5 1011.6
20190618221531 38 223 0.0 0.0 0.00 0.00 0.00 5 1011.7
20190618221038 38 191 0.0 0.0 0.00 0.00 0.00 5 1011.7
20190618220552 38 176 0.0 0.0 0.00 0.00 0.00 5 1011.8
20190618220021 38 294 0.0 0.0 0.00 0.00 0.00 5 1011.8
20190618215529 38 263 0.0 0.0 0.00 0.00 0.00 5 1012.0
20190618215033 38 250 0.0 0.0 0.00 0.00 0.00 5 1012.0
20190618214524 38 183 0.0 0.0 0.00 0.00 0.00 5 1012.0
20190618214030 38 174 0.0 0.0 0.00 0.00 0.00 5 1012.0
20190618213537 38 9 0.0 0.0 0.00 0.00 0.00 5 1012.0
20190618213022 37 5 0.0 0.0 0.00 0.00 0.00 5 1012.1
20190618212528 38 209 0.0 0.0 0.00 0.00 0.00 5 1012.2
20190618212033 38 49 0.0 0.0 0.00 0.00 0.00 5 1012.2
20190618211536 38 293 0.0 0.0 0.00 0.00 0.00 5 1012.3
20190618211023 37 329 0.0 0.0 0.00 0.00 0.00 6 1013.3
20190618210541 37 39 0.0 0.0 0.00 0.00 0.00 5 1013.2
20190618210033 37 97 0.0 0.0 0.00 0.00 0.00 5 1013.3
20190618205525 37 215 0.0 0.0 0.00 0.00 0.00 6 1013.5
20190618205028 37 309 0.0 0.0 0.00 0.00 0.00 5 1013.5
20190618204532 37 355 0.0 0.0 0.00 0.00 0.00 6 1013.7
20190618204040 37 108 0.0 0.0 0.00 0.00 0.00 6 1013.8
20190618203523 37 5 0.0 0.0 0.00 0.00 0.00 6 1013.8
20190618203030 36 89 0.0 0.0 0.00 0.00 0.00 6 1013.9
20190618202537 36 207 1.6 0.0 0.00 0.00 0.00 6 1013.9
20190618202021 36 184 0.0 0.0 0.00 0.00 0.00 6 1013.9
20190618201525 37 182 0.0 0.0 0.00 0.00 0.00 6 1014.0
20190618201030 36 73 0.0 0.0 0.00 0.00 0.00 6 1014.1
20190618200544 36 53 0.0 0.0 0.00 0.00 0.00 6 1014.1
20190618200038 36 270 0.0 0.0 0.00 0.00 0.00 6 1014.2
20190618195522 36 172 0.0 0.0 0.00 0.00 0.00 6 1014.3